Location: Kellogg
(38.0159°N, 90.0546°W)
Time: 01:15:53
(UTC+00:00)

Transit 2A - Pass Details

Date: 15 September 2024
Orbit: 590 x 960 km, 66.7° (Epoch: 09 October)

Event Time Altitude Azimuth Distance (km) Brightness Sun altitude
Rises 01:08:41 0° 229° (SW) 3,382 9.9 -12.5°
Reaches altitude 10° 01:11:11 10° 236° (SW) 2,503 9.3 -13.0°
Maximum altitude 01:16:42 41° 306° (NW) 1,300 7.7 -14.0°
Drops below altitude 10° 01:22:36 10° 15° (NNE) 2,677 8.8 -15.1°
Sets 01:25:24 0° 23° (NNE) 3,643 9.4 -15.7°
